Wind_Speed
17 17 20 10 11 28 36 35 39 27 29 35 38 42 41 41 37 36 39 41 43 45 46 50 54 57 62 67 70 72 76 81 86 87 89 93 99 103 105 108 112 110 108 106
20 21 20 13 12 16 22 24 24 23 31 35 32 35 34 34 32 33 33 37 41 43 47 51 56 62 67 71 73 76 80 84 88 89 92 96 102 106 110 114 111 108 105 105
24 27 20 20 19 18 18 20 24 26 25 28 28 29 25 27 27 32 34 37 40 45 50 56 61 66 70 74 75 78 81 85 88 91 96 102 109 112 114 112 109 107 104 100
31 26 23 23 24 18 16 20 22 18 23 18 22 20 23 24 28 31 35 39 44 51 56 62 66 69 71 74 77 80 84 87 89 95 100 107 110 110 109 108 106 103 99 96
36 31 26 24 27 22 18 18 19 19 16 21 18 24 27 28 35 37 41 45 50 56 61 65 67 69 71 73 75 81 84 87 93 98 105 109 108 107 106 104 101 99 95 89
33 33 25 31 25 22 16 20 20 20 21 21 23 27 27 34 39 42 46 49 52 57 61 64 66 69 74 76 80 82 85 90 95 103 106 106 105 104 103 99 96 91 85 79
39 36 30 30 25 19 19 22 23 22 21 25 27 29 31 34 39 44 47 49 53 57 60 64 68 72 75 78 80 83 88 92 99 103 106 104 103 101 97 93 88 81 76 72
39 33 32 30 25 21 19 23 23 21 22 27 28 32 34 40 41 42 45 49 55 58 62 67 71 75 76 79 82 87 91 98 102 106 104 102 101 96 93 87 80 75 70 65
39 34 30 30 30 27 24 24 25 24 25 28 25 29 32 38 40 41 45 51 57 61 65 70 74 77 79 78 83 88 94 99 106 105 101 100 96 92 87 81 75 69 64 59
42 40 34 33 35 34 29 29 28 28 28 29 30 30 33 38 38 43 49 54 59 62 66 70 75 78 79 80 85 90 97 101 105 102 99 97 92 88 83 76 70 64 58 55
45 43 35 31 34 31 31 30 30 31 29 30 31 27 33 35 40 43 49 57 61 63 67 71 77 79 79 82 86 91 98 103 102 98 96 92 88 85 79 72 65 58 55 55
46 44 39 32 31 29 32 34 28 32 27 27 28 30 33 36 41 47 52 56 61 64 69 73 79 79 80 84 88 95 98 100 98 95 92 88 85 82 75 68 60 56 54 52
46 46 41 35 33 31 33 32 27 27 27 26 28 32 35 39 44 50 56 59 63 67 71 75 80 78 80 84 89 96 99 97 94 92 89 85 83 80 74 64 59 55 53 51
49 47 40 35 40 38 38 34 36 31 32 30 30 32 35 42 48 52 57 60 65 68 72 77 82 79 82 85 91 96 96 94 91 88 85 82 82 79 71 63 57 54 52 49
51 47 40 40 34 35 35 35 31 35 35 29 32 32 37 45 50 52 57 61 66 69 72 78 79 77 81 85 92 95 93 91 88 85 81 80 81 77 70 62 57 53 50 50
53 45 39 40 35 39 37 38 36 31 36 27 31 36 44 49 49 52 57 61 67 70 74 79 76 77 80 85 91 95 90 88 85 83 79 76 78 77 71 63 57 53 50 50
52 48 39 45 42 38 37 37 34 35 31 38 45 45 47 48 47 51 56 62 66 70 74 78 76 77 81 86 90 92 88 84 82 80 77 73 73 74 71 64 58 54 51 52
50 46 44 45 35 38 36 33 32 36 40 41 42 45 44 44 46 51 56 62 66 70 74 76 74 78 80 86 89 89 86 81 79 77 74 71 69 71 70 64 58 56 52 53
44 42 40 40 41 37 36 34 33 36 40 39 38 39 41 42 45 51 56 61 66 70 74 73 74 76 81 85 89 86 83 78 76 74 71 69 66 66 69 66 58 56 52 52
48 47 49 45 44 38 36 38 38 42 34 34 35 37 39 41 46 51 56 61 66 69 72 71 73 76 81 84 88 84 81 76 73 71 69 66 65 64 64 66 61 54 51 49
46 45 48 45 41 40 38 35 37 35 37 35 36 36 39 42 46 52 56 62 65 69 69 70 72 75 81 84 86 83 80 74 72 69 66 65 64 63 61 62 64 60 55 50
49 49 47 44 38 41 41 35 33 36 36 36 36 35 39 43 47 52 56 61 64 68 67 68 70 74 79 83 84 82 79 74 72 69 66 64 63 63 62 61 62 64 61 57
51 46 40 38 40 38 34 31 31 34 33 33 34 35 40 44 49 50 56 60 63 66 64 66 69 73 78 82 82 81 79 74 72 70 67 65 63 62 61 62 62 64 65 61
51 46 47 43 41 37 31 30 31 31 32 33 34 35 40 45 47 50 56 59 62 61 62 64 67 72 77 80 81 80 78 73 73 71 69 66 64 62 61 59 60 60 60 61
51 43 43 39 35 33 32 33 32 32 31 34 33 35 41 47 44 50 55 57 61 58 60 62 66 70 75 79 79 80 77 74 73 72 70 67 65 63 60 58 56 55 54 54
48 46 41 38 36 34 33 30 30 31 32 30 32 35 42 42 44 50 55 55 58 56 57 61 64 68 74 76 78 78 76 74 73 73 72 69 67 64 61 57 56 54 54 54
Wind_Direction
246 257 260 286 275 242 241 255 262 276 286 290 291 293 292 295 300 303 305 307 309 315 316 312 313 315 315 315 316 316 316 315 315 314 313 313 312 313 312 310 310 309 307 306
242 251 254 256 252 239 246 248 274 291 295 294 296 299 307 303 305 307 313 311 314 314 315 316 317 317 316 317 317 316 316 316 315 315 315 314 315 313 313 313 311 310 309 308
244 249 253 259 261 256 262 272 283 300 294 301 302 307 309 312 312 312 314 315 317 318 317 319 319 318 318 317 317 317 317 317 317 317 316 316 315 316 315 314 313 313 312 311
236 248 244 256 259 259 266 275 287 299 301 313 305 312 310 319 312 318 320 321 322 321 321 320 319 319 318 318 317 318 319 320 318 318 318 317 317 316 316 315 316 315 314 314
238 245 261 241 257 255 260 273 286 293 303 304 325 316 325 317 322 324 324 324 323 322 320 319 318 320 319 318 318 320 321 320 320 321 320 319 319 318 318 319 318 318 317 316
244 247 258 254 250 257 270 275 277 284 294 299 309 316 321 315 317 323 323 323 322 321 320 320 322 322 323 322 323 323 322 321 323 322 322 322 321 321 322 321 321 320 319 318
241 246 246 264 250 259 274 271 275 285 294 298 305 315 314 314 314 319 321 322 322 321 322 325 324 325 326 325 325 324 323 324 324 324 324 324 324 325 324 324 324 323 322 321
230 241 240 258 261 286 267 267 272 284 291 295 311 315 313 313 319 320 321 323 322 322 324 326 327 329 328 327 327 326 326 327 328 327 327 327 327 328 328 328 327 327 326 326
224 239 249 252 261 268 279 272 280 282 289 295 308 314 309 315 318 320 322 325 325 326 327 327 329 330 328 328 327 328 329 330 331 329 330 330 331 331 331 331 333 331 332 334
231 237 253 248 256 266 278 274 277 280 292 296 307 317 314 318 319 323 322 325 327 328 328 328 330 330 330 329 329 329 331 332 332 333 333 333 334 334 335 337 337 338 338 335
232 235 245 243 251 263 264 277 273 277 283 291 302 313 312 318 320 326 325 326 327 328 328 329 331 331 330 331 331 331 334 333 334 335 335 336 337 339 340 341 343 341 340 342
234 237 237 244 251 263 267 272 267 275 287 289 298 306 310 318 321 323 325 325 328 328 330 331 332 332 332 332 333 335 336 335 336 337 338 339 341 343 345 347 345 344 346 345
233 238 242 248 249 254 265 273 274 293 292 285 293 299 308 319 322 325 326 328 330 330 331 332 332 333 333 333 335 336 337 337 338 340 341 341 345 347 349 349 348 349 350 350
238 237 237 250 250 256 261 270 277 293 294 287 291 301 312 322 324 325 326 328 330 331 331 332 333 335 335 335 336 338 338 339 340 342 343 345 348 351 352 351 351 352 354 355
236 235 237 250 242 249 260 261 284 291 297 294 294 306 319 321 324 323 326 328 330 332 331 332 334 334 335 337 338 340 340 341 341 343 346 349 351 354 354 355 354 356 360 1
231 230 232 242 250 258 262 262 271 287 299 302 309 315 315 318 320 324 325 328 330 332 331 333 334 335 337 338 340 341 342 342 343 345 350 352 353 356 356 357 358 360 4 4
226 228 231 238 245 255 257 262 267 278 288 296 304 305 309 316 318 323 324 328 330 331 331 334 335 336 338 340 342 343 344 344 345 348 351 354 355 357 359 359 360 3 7 7
226 230 238 240 246 251 255 271 281 276 280 290 297 302 307 314 319 322 324 328 330 330 332 335 335 338 339 341 343 345 345 345 347 349 352 356 358 359 2 3 3 6 9 10
230 230 229 240 253 256 265 274 279 284 285 287 295 304 311 314 319 321 324 328 330 331 333 335 337 339 340 343 344 346 347 348 350 351 354 356 0 2 2 6 7 8 10 12
221 226 236 248 252 256 261 270 276 282 283 295 300 304 311 314 318 320 325 329 330 331 335 336 339 340 341 344 346 348 349 351 352 354 356 358 360 4 6 6 10 12 12 14
227 232 236 239 245 255 267 266 272 275 286 292 298 304 308 313 317 321 325 329 330 332 336 336 340 341 342 345 348 350 351 352 355 356 359 1 2 4 8 8 10 13 14 15
215 223 227 229 245 255 262 259 268 278 285 292 297 304 306 313 317 321 326 330 331 333 336 338 341 342 343 346 349 352 353 354 356 359 2 4 4 4 7 11 11 14 15 15
221 223 234 246 250 256 257 266 276 280 288 294 299 303 306 314 317 320 327 331 331 335 337 341 342 343 344 348 351 353 355 356 358 1 4 6 7 5 7 9 13 14 16 16
226 227 236 246 250 253 258 267 274 283 287 293 298 300 308 315 317 321 329 332 332 336 337 342 343 344 345 349 352 355 356 359 1 2 5 7 8 8 8 9 11 13 15 15
220 225 232 240 246 251 257 269 275 280 286 290 295 299 313 316 317 324 329 331 332 336 338 343 345 345 347 349 353 356 358 1 3 4 6 8 10 10 10 9 9 11 12 14
219 224 232 238 243 247 261 269 274 280 284 294 305 304 311 316 319 326 329 330 333 335 340 344 346 347 349 350 354 357 360 2 5 6 7 10 11 13 12 11 9 9 10 12
Height
10758 10758 10756 10756 10753 10754 10758 10759 10760 10761 10760 10756 10756 10747 10743 10739 10736 10731 10726 10719 10713 10708 10701 10693 10685 10676 10666 10654 10643 10630 10617 10600 10587 10572 10555 10538 10520 10502 10483 10463 10444 10425 10406 10387
10754 10753 10753 10753 10752 10751 10753 10755 10755 10755 10754 10746 10746 10741 10738 10733 10729 10724 10719 10714 10709 10703 10695 10687 10678 10667 10656 10643 10631 10618 10604 10589 10571 10556 10538 10521 10502 10481 10460 10438 10417 10398 10378 10360
10748 10748 10750 10750 10750 10750 10751 10752 10751 10748 10748 10741 10741 10736 10732 10728 10724 10720 10715 10710 10704 10696 10688 10679 10669 10658 10646 10632 10620 10606 10591 10576 10557 10539 10520 10500 10478 10455 10433 10410 10389 10369 10350 10332
10742 10743 10746 10746 10747 10747 10747 10747 10746 10745 10742 10739 10735 10735 10729 10726 10721 10716 10710 10704 10697 10689 10681 10671 10660 10649 10637 10623 10607 10593 10577 10560 10543 10523 10503 10481 10459 10436 10413 10390 10367 10345 10325 10306
10735 10738 10741 10742 10742 10743 10742 10743 10742 10740 10738 10733 10733 10728 10727 10721 10714 10710 10705 10698 10691 10683 10673 10662 10651 10639 10627 10615 10601 10582 10566 10546 10527 10507 10484 10462 10437 10414 10391 10368 10344 10321 10302 10283
10730 10733 10737 10737 10737 10738 10739 10739 10738 10735 10733 10731 10727 10725 10725 10717 10709 10705 10700 10693 10685 10676 10666 10655 10643 10630 10615 10599 10583 10570 10551 10532 10513 10490 10468 10443 10419 10394 10370 10346 10324 10302 10282 10264
10723 10728 10732 10732 10733 10733 10734 10735 10733 10731 10729 10726 10724 10722 10720 10714 10709 10701 10694 10687 10679 10669 10659 10648 10634 10619 10604 10588 10574 10556 10539 10519 10498 10474 10447 10423 10398 10374 10351 10329 10306 10285 10266 10249
10719 10724 10725 10727 10728 10729 10730 10729 10728 10726 10724 10721 10720 10716 10714 10707 10702 10695 10689 10682 10673 10663 10652 10639 10624 10611 10596 10577 10560 10543 10524 10503 10479 10453 10428 10404 10380 10355 10332 10311 10289 10271 10253 10238
10711 10716 10719 10723 10723 10725 10725 10724 10723 10722 10719 10716 10719 10715 10712 10705 10698 10691 10684 10677 10667 10655 10643 10629 10615 10601 10585 10571 10551 10530 10510 10487 10462 10436 10412 10388 10364 10341 10318 10296 10276 10258 10242 10228
10705 10710 10715 10716 10720 10720 10722 10719 10719 10716 10714 10711 10710 10710 10706 10698 10694 10687 10677 10670 10659 10648 10636 10622 10607 10591 10576 10559 10540 10519 10498 10473 10448 10423 10399 10374 10352 10329 10306 10286 10266 10249 10233 10217
10698 10705 10709 10712 10712 10715 10716 10715 10713 10712 10710 10706 10704 10707 10701 10697 10688 10685 10675 10665 10653 10641 10629 10615 10600 10584 10566 10548 10529 10508 10485 10461 10435 10412 10388 10364 10342 10318 10298 10278 10259 10242 10226 10212
10691 10697 10703 10705 10708 10711 10711 10710 10709 10706 10706 10704 10701 10700 10696 10693 10687 10680 10672 10661 10649 10635 10621 10607 10592 10575 10557 10537 10518 10497 10475 10451 10427 10404 10380 10357 10335 10312 10290 10270 10252 10237 10223 10209
10687 10691 10697 10701 10704 10705 10707 10706 10705 10704 10702 10699 10697 10694 10690 10685 10679 10671 10662 10651 10639 10626 10613 10599 10584 10567 10549 10530 10510 10489 10466 10442 10419 10396 10373 10350 10328 10306 10285 10265 10248 10233 10220 10206
10679 10685 10692 10696 10696 10701 10701 10702 10702 10701 10697 10695 10692 10690 10686 10680 10674 10665 10654 10644 10632 10619 10606 10591 10574 10557 10540 10521 10501 10481 10458 10434 10411 10391 10368 10345 10322 10302 10281 10263 10246 10232 10218 10205
10673 10679 10685 10688 10691 10693 10695 10697 10697 10696 10694 10692 10688 10686 10681 10676 10668 10659 10649 10638 10626 10613 10600 10586 10570 10554 10535 10517 10496 10474 10451 10428 10407 10386 10364 10340 10319 10300 10279 10262 10245 10231 10218 10205
10664 10672 10679 10681 10685 10688 10691 10692 10692 10692 10690 10689 10685 10681 10677 10671 10663 10653 10643 10632 10620 10607 10594 10579 10564 10547 10528 10511 10490 10468 10445 10423 10402 10381 10361 10339 10318 10299 10279 10261 10246 10232 10218 10206
10657 10665 10671 10676 10680 10684 10686 10687 10688 10687 10684 10685 10681 10677 10672 10666 10657 10648 10638 10627 10615 10602 10588 10573 10557 10540 10523 10505 10485 10463 10441 10419 10398 10377 10358 10339 10319 10300 10281 10263 10247 10232 10219 10207
10652 10661 10667 10672 10675 10678 10679 10682 10682 10681 10681 10679 10676 10672 10667 10660 10652 10643 10633 10622 10609 10596 10582 10567 10551 10535 10517 10500 10480 10459 10437 10415 10394 10375 10357 10339 10321 10302 10284 10266 10248 10233 10220 10209
10648 10656 10663 10665 10669 10672 10675 10677 10676 10676 10676 10674 10671 10667 10662 10655 10647 10638 10628 10617 10605 10591 10577 10562 10546 10530 10513 10496 10477 10455 10434 10413 10392 10373 10355 10337 10322 10304 10286 10270 10252 10237 10223 10212
10643 10651 10656 10660 10663 10667 10669 10672 10671 10671 10671 10667 10665 10662 10657 10650 10642 10633 10623 10612 10600 10586 10572 10557 10542 10526 10509 10492 10473 10452 10432 10411 10391 10373 10355 10338 10321 10306 10290 10273 10258 10243 10229 10217
10639 10645 10646 10651 10657 10661 10664 10666 10666 10667 10665 10662 10660 10656 10651 10645 10637 10628 10618 10607 10595 10582 10567 10553 10539 10523 10506 10489 10470 10449 10429 10410 10391 10373 10356 10338 10322 10307 10293 10277 10261 10245 10232 10220
10627 10633 10640 10646 10651 10655 10658 10660 10660 10661 10658 10656 10654 10651 10646 10640 10631 10622 10613 10603 10590 10577 10563 10550 10535 10520 10503 10485 10467 10448 10428 10409 10390 10372 10355 10339 10323 10308 10293 10279 10264 10249 10234 10220
10622 10630 10636 10640 10645 10649 10651 10654 10654 10653 10652 10651 10649 10646 10641 10635 10626 10617 10608 10598 10586 10573 10560 10547 10532 10517 10500 10483 10466 10447 10428 10408 10390 10372 10355 10339 10324 10309 10294 10280 10265 10251 10238 10226
10616 10624 10626 10636 10640 10643 10646 10647 10649 10647 10646 10646 10644 10640 10636 10629 10621 10612 10603 10593 10582 10569 10557 10544 10529 10514 10498 10482 10465 10447 10428 10408 10390 10373 10357 10341 10326 10311 10297 10283 10270 10258 10246 10236
10609 10617 10624 10629 10634 10637 10640 10641 10642 10642 10641 10640 10638 10635 10630 10623 10615 10607 10599 10589 10578 10566 10554 10542 10528 10512 10496 10481 10464 10447 10429 10410 10393 10375 10359 10343 10328 10314 10301 10288 10276 10266 10256 10245
10606 10609 10618 10624 10629 10632 10634 10635 10636 10636 10635 10634 10632 10629 10624 10617 10610 10602 10594 10584 10574 10563 10551 10539 10526 10512 10496 10480 10464 10448 10430 10413 10396 10379 10362 10347 10332 10319 10306 10294 10282 10270 10259 10248